Weather History for EIDW - October, 2014

Change the Weather History Date:

Sunday, October 26, 2014

  Actual Average Record
Temperature  
Mean Temperature 56 °F -  
Max Temperature 60 °F 51 °F 66 °F (2005)
Min Temperature 51 °F 41 °F 35 °F (2004)
Degree Days  
Heating Degree Days 10    
Growing Degree Days 6 (Base 50)    
Moisture  
Dew Point 50 °F    
Average Humidity 78    
Maximum Humidity 88    
Minimum Humidity 65    
Precipitation  
Precipitation 0.00 in 0.09 in - ()
Sea Level Pressure  
Sea Level Pressure 29.86 in    
Wind  
Wind Speed 19 mph ()    
Max Wind Speed 25 mph    
Max Gust Speed 41 mph    
Visibility 9.8 miles    
Events Rain    
Averages and records for this station are not official NWS values.
T = Trace of Precipitation, MM = Missing Value Source: Averaged Metar Reports

Daily Weather History Graph

Daily Weather History Graph

Search for Another Location

Airport or City:

Trip Planner

Search our weather history database for the weather conditions in past years. The results will help you decide how hot, cold, wet, or windy it might be!

Date:

Astronomy

Oct. 26, 2014 Rise Set
Actual Time 7:12 AM GMT 5:05 PM GMT
Civil Twilight 6:36 AM GMT 5:41 PM GMT
Nautical Twilight 5:55 AM GMT 6:22 PM GMT
Astronomical Twilight 5:14 AM GMT 7:02 PM GMT
Moon 9:51 AM GMT (10/26) 6:48 PM GMT (10/26)
Length of Visible Light 11h 05m
Length of Day
9h 52m
Waxing Crescent, 7% of the Moon is Illuminated
Oct 26
Waxing Crescent
Oct 31
First Quarter
Nov 6
Full
Nov 14
Last Quarter
Nov 22
New

Hourly Weather History & Observations

Time (GMT) Temp. Dew Point Humidity Pressure Visibility Wind Dir Wind Speed Gust Speed Precip Events Conditions
12:00 AM 53 °F 46 °F 70% 29.90 in 19 mi SW 22.4 mph - -   Partly Cloudy
12:00 AM 53.6 °F 46.4 °F 77% 29.89 in 6.2 mi SW 20.7 mph - N/A   Mostly Cloudy
12:30 AM 53.6 °F 46.4 °F 77% 29.89 in 6.2 mi SW 21.9 mph - N/A   Mostly Cloudy
1:00 AM 53 °F 46 °F 71% 29.91 in 19 mi SW 22.4 mph - -   Partly Cloudy
1:00 AM 53.6 °F 46.4 °F 77% 29.89 in 6.2 mi SW 21.9 mph - N/A   Mostly Cloudy
1:30 AM 53.6 °F 46.4 °F 77% 29.89 in 6.2 mi SW 20.7 mph 32.2 mph N/A   Mostly Cloudy
1:00 AM 53 °F 47 °F 75% 29.90 in 19 mi SW 20.1 mph - -   Overcast
1:00 AM 53.6 °F 48.2 °F 82% 29.89 in 6.2 mi SW 20.7 mph - N/A   Mostly Cloudy
1:30 AM 53.6 °F 48.2 °F 82% 29.89 in 6.2 mi SW 19.6 mph 32.2 mph N/A   Mostly Cloudy
2:00 AM 53 °F 48 °F 77% 29.90 in 19 mi SW 17.9 mph - -   Overcast
2:00 AM 53.6 °F 48.2 °F 82% 29.89 in 6.2 mi SW 18.4 mph - N/A   Mostly Cloudy
2:30 AM 53.6 °F 48.2 °F 82% 29.89 in 6.2 mi SW 21.9 mph 33.4 mph N/A   Mostly Cloudy
3:00 AM 53 °F 48 °F 76% 29.89 in 19 mi SW 17.9 mph - -   Overcast
3:00 AM 53.6 °F 48.2 °F 82% 29.89 in 6.2 mi SW 17.3 mph - N/A   Mostly Cloudy
3:30 AM 53.6 °F 48.2 °F 82% 29.86 in 6.2 mi SW 17.3 mph - N/A   Mostly Cloudy
4:00 AM 54 °F 47 °F 72% 29.89 in 19 mi SW 20.1 mph - -   Mostly Cloudy
4:00 AM 53.6 °F 48.2 °F 82% 29.86 in 6.2 mi SW 19.6 mph - N/A   Mostly Cloudy
4:30 AM 53.6 °F 48.2 °F 82% 29.86 in 6.2 mi SW 19.6 mph - N/A   Mostly Cloudy
5:00 AM 53 °F 48 °F 79% 29.88 in 19 mi SW 20.1 mph - -   Mostly Cloudy
5:00 AM 53.6 °F 48.2 °F 82% 29.86 in 6.2 mi SW 20.7 mph - N/A   Mostly Cloudy
5:30 AM 53.6 °F 48.2 °F 82% 29.86 in 6.2 mi SW 18.4 mph 29.9 mph N/A   Mostly Cloudy
6:00 AM 53 °F 48 °F 78% 29.88 in 19 mi SW 17.9 mph - -   Mostly Cloudy
6:00 AM 53.6 °F 48.2 °F 82% 29.86 in 6.2 mi SW 17.3 mph - N/A   Mostly Cloudy
6:30 AM 53.6 °F 48.2 °F 82% 29.86 in 6.2 mi SW 17.3 mph - N/A   Mostly Cloudy
7:00 AM 53 °F 49 °F 80% 29.87 in 12 mi SW 17.9 mph - - Rain Light Rain
7:00 AM 53.6 °F 48.2 °F 82% 29.86 in 6.2 mi SW 17.3 mph - N/A Rain Light Rain
7:30 AM 53.6 °F 50.0 °F 88% 29.86 in 6.2 mi SW 17.3 mph - N/A Rain Light Rain
8:00 AM 53 °F 49 °F 81% 29.88 in 19 mi SW 20.1 mph - - Rain Light Rain
8:00 AM 53.6 °F 48.2 °F 82% 29.86 in 6.2 mi SW 18.4 mph - N/A   Mostly Cloudy
8:30 AM 53.6 °F 48.2 °F 82% 29.86 in 6.2 mi SW 19.6 mph 31.1 mph N/A   Mostly Cloudy
9:00 AM 54 °F 48 °F 74% 29.87 in 19 mi SW 20.1 mph - -   Partly Cloudy
9:00 AM 53.6 °F 48.2 °F 82% 29.86 in 6.2 mi SW 21.9 mph 33.4 mph N/A   Mostly Cloudy
9:30 AM 55.4 °F 48.2 °F 77% 29.86 in 6.2 mi SW 20.7 mph - N/A   Mostly Cloudy
10:00 AM 55 °F 47 °F 68% 29.88 in 25 mi SW 17.9 mph - -   Mostly Cloudy
10:00 AM 55.4 °F 48.2 °F 77% 29.86 in 6.2 mi SW 19.6 mph 32.2 mph N/A   Mostly Cloudy
10:30 AM 55.4 °F 48.2 °F 77% 29.86 in 6.2 mi SW 19.6 mph 31.1 mph N/A   Mostly Cloudy
11:00 AM 56 °F 47 °F 65% 29.86 in 28 mi SW 22.4 mph - -   Mostly Cloudy
11:00 AM 55.4 °F 48.2 °F 77% 29.86 in 6.2 mi SW 21.9 mph - N/A   Mostly Cloudy
11:30 AM 57.2 °F 48.2 °F 72% 29.86 in 6.2 mi SW 20.7 mph - N/A   Mostly Cloudy
12:00 PM 58 °F 49 °F 65% 29.85 in 28 mi SW 22.4 mph - -   Partly Cloudy
12:00 PM 57.2 °F 50.0 °F 77% 29.83 in 6.2 mi SW 24.2 mph 41.4 mph N/A   Mostly Cloudy
12:30 PM 59.0 °F 50.0 °F 72% 29.83 in 6.2 mi SW 25.3 mph 39.1 mph N/A   Mostly Cloudy
1:00 PM 59 °F 51 °F 69% 29.83 in 28 mi SSW 17.9 mph - -   Mostly Cloudy
1:00 PM 59.0 °F 51.8 °F 77% 29.83 in 6.2 mi SW 18.4 mph - N/A   Mostly Cloudy
1:30 PM 59.0 °F 51.8 °F 77% 29.83 in 6.2 mi SW 21.9 mph 33.4 mph N/A   Light Drizzle
2:00 PM 60 °F 53 °F 70% 29.82 in 19 mi SW 22.4 mph - - Rain Light Drizzle
2:00 PM 59.0 °F 53.6 °F 82% 29.80 in 6.2 mi SW 20.7 mph 34.5 mph N/A   Mostly Cloudy
2:30 PM 60.8 °F 53.6 °F 77% 29.80 in 6.2 mi SW 24.2 mph 36.8 mph N/A   Mostly Cloudy
3:00 PM 60 °F 54 °F 74% 29.81 in 16 mi SW 24.6 mph - - Rain Light Drizzle
3:00 PM 60.8 °F 53.6 °F 77% 29.80 in 6.2 mi SW 23.0 mph - N/A   Mostly Cloudy
3:30 PM 59.0 °F 53.6 °F 82% 29.80 in 6.2 mi SW 23.0 mph 36.8 mph N/A   Mostly Cloudy
4:00 PM 59 °F 55 °F 81% 29.83 in 19 mi SW 22.4 mph - - Rain Light Drizzle
4:00 PM 59.0 °F 55.4 °F 88% 29.80 in 6.2 mi SW 20.7 mph - N/A   Mostly Cloudy
4:30 PM 59.0 °F 53.6 °F 82% 29.80 in 6.2 mi SW 20.7 mph - N/A   Mostly Cloudy
5:00 PM 59 °F 54 °F 79% 29.84 in 19 mi SW 20.1 mph - -   Mostly Cloudy
5:00 PM 59.0 °F 53.6 °F 82% 29.83 in 6.2 mi SW 19.6 mph - N/A   Mostly Cloudy
5:30 PM 59.0 °F 53.6 °F 82% 29.83 in 6.2 mi SW 19.6 mph - N/A   Mostly Cloudy
6:00 PM 59 °F 54 °F 79% 29.86 in 19 mi SW 17.9 mph - -   Partly Cloudy
6:00 PM 59.0 °F 53.6 °F 82% 29.83 in 6.2 mi SW 19.6 mph - N/A   Mostly Cloudy
6:30 PM 59.0 °F 55.4 °F 88% 29.86 in 6.2 mi SW 16.1 mph - N/A   Light Drizzle
7:00 PM 60 °F 54 °F 76% 29.86 in 19 mi SW 20.1 mph - - Rain Light Drizzle
7:00 PM 59.0 °F 53.6 °F 82% 29.86 in 6.2 mi SW 19.6 mph 31.1 mph N/A   Light Drizzle
7:30 PM 60.8 °F 53.6 °F 77% 29.86 in 6.2 mi SW 21.9 mph - N/A   Mostly Cloudy
8:00 PM 60 °F 54 °F 74% 29.87 in 19 mi SW 17.9 mph - -   Mostly Cloudy
8:00 PM 60.8 °F 53.6 °F 77% 29.86 in 6.2 mi SW 18.4 mph - N/A   Mostly Cloudy
8:30 PM 60.8 °F 53.6 °F 77% 29.86 in 6.2 mi SW 18.4 mph - N/A   Mostly Cloudy
9:00 PM 60 °F 55 °F 77% 29.88 in 19 mi SW 17.9 mph - -   Partly Cloudy
9:00 PM 59.0 °F 55.4 °F 88% 29.86 in 6.2 mi SW 17.3 mph 31.1 mph N/A   Mostly Cloudy
9:30 PM 59.0 °F 55.4 °F 88% 29.89 in 6.2 mi SW 15.0 mph - N/A   Mostly Cloudy
10:00 PM 60 °F 54 °F 76% 29.88 in 19 mi SSW 17.9 mph - -   Overcast
10:00 PM 59.0 °F 53.6 °F 82% 29.89 in 6.2 mi SSW 16.1 mph 27.6 mph N/A   Mostly Cloudy
10:30 PM 59.0 °F 53.6 °F 82% 29.89 in 6.2 mi SW 20.7 mph 33.4 mph N/A   Mostly Cloudy